This is the latest recevied weather packets stored in our database for station/object SP3SWJ-13. If no packets are shown the sender has not sent any weather packets the latest 1 day(s).
| Time | Temp. | Humidity | Pressure | Rain* | Wind** | Luminosity | Snow |
|---|---|---|---|---|---|---|---|
| 1778081443 | 17.22° C | 66% | 996.8 hPa | - | - | 238 W/m² | - |
| 1778079638 | 17.22° C | 70% | 996.5 hPa | - | - | 144 W/m² | - |
| 1778079036 | 17.78° C | 70% | 996.5 hPa | - | - | 74 W/m² | - |
| 1778078735 | 17.78° C | 70% | 996.4 hPa | - | - | 69 W/m² | - |
| 1778078434 | 17.78° C | 69% | 996.4 hPa | - | - | 51 W/m² | - |
| 1778078133 | 18.33° C | 68% | 996.3 hPa | - | - | 42 W/m² | - |
| 1778076327 | 17.22° C | 70% | 996.2 hPa | - | - | 62 W/m² | - |
| 1778076026 | 17.78° C | 68% | 996.2 hPa | - | - | 15 W/m² | - |
| 1778073619 | 17.78° C | 67% | 995.9 hPa | - | - | 20 W/m² | - |
| 1778072415 | 17.78° C | 64% | 995.8 hPa | - | - | 32 W/m² | - |
| 1778070911 | 18.33° C | 62% | 995.9 hPa | - | - | 66 W/m² | - |
| 1778069707 | 18.33° C | 61% | 995.7 hPa | - | - | 179 W/m² | - |
| 1778069406 | 18.33° C | 61% | 995.6 hPa | - | - | 226 W/m² | - |
| 1778069105 | 17.78° C | 62% | 995.7 hPa | - | - | 320 W/m² | - |
| 1778068503 | 17.78° C | 64% | 995.6 hPa | - | - | 140 W/m² | - |
| 1778067600 | 17.22° C | 65% | 995.8 hPa | - | - | 90 W/m² | - |
| 1778066998 | 17.22° C | 65% | 995.7 hPa | - | - | 80 W/m² | - |
| 1778066697 | 17.22° C | 64% | 995.8 hPa | - | - | 93 W/m² | - |
| 1778066396 | 17.22° C | 65% | 995.7 hPa | - | - | 69 W/m² | - |
| 1778065794 | 17.22° C | 65% | 995.7 hPa | - | - | 47 W/m² | - |
| 1778065493 | 17.22° C | 65% | 995.7 hPa | - | - | 60 W/m² | - |
| 1778064891 | 17.22° C | 65% | 995.7 hPa | - | - | 131 W/m² | - |
| 1778064590 | 17.22° C | 64% | 995.6 hPa | - | - | 211 W/m² | - |
| 1778063687 | 17.78° C | 63% | 995.8 hPa | - | - | 109 W/m² | - |
| 1778063386 | 17.78° C | 61% | 995.7 hPa | - | - | 231 W/m² | - |
* Rain since midnight (hover to see other rain measurements)
** Current wind speed in m/s (hover to see current wind gust speed)